| time (UTC) | temp F | wind direction | speed MPH | gust MPH | rain 1hr in | rain 24hr in | rain mn in | humidity % | barometer mb |
| 20260504234624 | 79 | 158 | 5.0 | 4.0 | 0.00 | 0.00 | 0.00 | ||
| 20260504233624 | 80 | 149 | 1.0 | 3.0 | 0.00 | 0.00 | 0.00 | ||
| 20260504232624 | 80 | 160 | 5.0 | 3.0 | 0.00 | 0.00 | 0.00 | ||
| 20260504232124 | 81 | 238 | 4.0 | 4.0 | 0.00 | 0.00 | 0.00 | ||
| 20260504231625 | 81 | 201 | 4.0 | 13.0 | 0.00 | 0.00 | 0.00 | ||
| 20260504231124 | 80 | 220 | 5.0 | 6.0 | 0.00 | 0.00 | 0.00 | ||
| 20260504230624 | 80 | 234 | 6.0 | 8.0 | 0.00 | 0.00 | 0.00 | ||
| 20260504230125 | 81 | 193 | 6.0 | 6.0 | 0.00 | 0.00 | 0.00 | ||
| 20260504225624 | 81 | 100 | 5.0 | 6.0 | 0.00 | 0.00 | 0.00 | ||
| 20260504225124 | 81 | 196 | 8.0 | 6.0 | 0.00 | 0.00 | 0.00 | ||
| 20260504224625 | 82 | 231 | 6.0 | 17.0 | 0.00 | 0.00 | 0.00 | ||
| 20260504224125 | 83 | 15 | 6.0 | 11.0 | 0.00 | 0.00 | 0.00 | ||
| 20260504223625 | 82 | 1 | 10.0 | 6.0 | 0.00 | 0.00 | 0.00 | ||
| 20260504223124 | 82 | 13 | 6.0 | 8.0 | 0.00 | 0.00 | 0.00 | ||
| 20260504221124 | 82 | 197 | 3.0 | 5.0 | 0.00 | 0.00 | 0.00 | ||
| 20260504220625 | 82 | 206 | 6.0 | 7.0 | 0.00 | 0.00 | 0.00 | ||
| 20260504220125 | 84 | 177 | 5.0 | 10.0 | 0.00 | 0.00 | 0.00 | ||
| 20260504215625 | 86 | 142 | 7.0 | 12.0 | 0.00 | 0.00 | 0.00 | ||
| 20260504215125 | 84 | 184 | 7.0 | 13.0 | 0.00 | 0.00 | 0.00 | ||
| 20260504214625 | 84 | 224 | 7.0 | 11.0 | 0.00 | 0.00 | 0.00 | ||
| 20260504214125 | 84 | 193 | 6.0 | 5.0 | 0.00 | 0.00 | 0.00 | ||
| 20260504213625 | 84 | 231 | 4.0 | 11.0 | 0.00 | 0.00 | 0.00 | ||
| 20260504213125 | 84 | 237 | 9.0 | 6.0 | 0.00 | 0.00 | 0.00 | ||
| 20260504212625 | 84 | 49 | 3.0 | 5.0 | 0.00 | 0.00 | 0.00 | ||
| 20260504212125 | 84 | 213 | 6.0 | 8.0 | 0.00 | 0.00 | 0.00 | ||
| 20260504211625 | 84 | 260 | 5.0 | 5.0 | 0.00 | 0.00 | 0.00 | ||
| 20260504211125 | 84 | 204 | 7.0 | 11.0 | 0.00 | 0.00 | 0.00 | ||
| 20260504210125 | 86 | 241 | 9.0 | 9.0 | 0.00 | 0.00 | 0.00 | ||
| 20260504205625 | 84 | 279 | 6.0 | 7.0 | 0.00 | 0.00 | 0.00 | ||
| 20260504205125 | 84 | 103 | 4.0 | 7.0 | 0.00 | 0.00 | 0.00 | ||
| 20260504204625 | 84 | 189 | 6.0 | 9.0 | 0.00 | 0.00 | 0.00 | ||
| 20260504204125 | 85 | 190 | 9.0 | 12.0 | 0.00 | 0.00 | 0.00 | ||
| 20260504203625 | 84 | 249 | 6.0 | 8.0 | 0.00 | 0.00 | 0.00 | ||
| 20260504203125 | 84 | 249 | 7.0 | 7.0 | 0.00 | 0.00 | 0.00 | ||
| 20260504202625 | 84 | 220 | 7.0 | 7.0 | 0.00 | 0.00 | 0.00 | ||
| 20260504202125 | 84 | 177 | 6.0 | 8.0 | 0.00 | 0.00 | 0.00 | ||
| 20260504201625 | 84 | 200 | 6.0 | 15.0 | 0.00 | 0.00 | 0.00 | ||
| 20260504201125 | 84 | 210 | 7.0 | 11.0 | 0.00 | 0.00 | 0.00 | ||
| 20260504200626 | 84 | 238 | 7.0 | 8.0 | 0.00 | 0.00 | 0.00 | ||
| 20260504200125 | 84 | 248 | 4.0 | 7.0 | 0.00 | 0.00 | 0.00 | ||
| 20260504195625 | 84 | 172 | 4.0 | 10.0 | 0.00 | 0.00 | 0.00 | ||
| 20260504195125 | 83 | 227 | 5.0 | 7.0 | 0.00 | 0.00 | 0.00 | ||
| 20260504194125 | 84 | 196 | 7.0 | 8.0 | 0.00 | 0.00 | 0.00 | ||
| 20260504193625 | 84 | 238 | 6.0 | 6.0 | 0.00 | 0.00 | 0.00 | ||
| 20260504193126 | 83 | 197 | 4.0 | 3.0 | 0.00 | 0.00 | 0.00 | ||
| 20260504192625 | 83 | 196 | 5.0 | 7.0 | 0.00 | 0.00 | 0.00 | ||
| 20260504192125 | 83 | 235 | 3.0 | 5.0 | 0.00 | 0.00 | 0.00 | ||
| 20260504191125 | 83 | 187 | 7.0 | 7.0 | 0.00 | 0.00 | 0.00 | ||
| 20260504190625 | 83 | 8 | 3.0 | 5.0 | 0.00 | 0.00 | 0.00 | ||
| 20260504190125 | 82 | 238 | 7.0 | 9.0 | 0.00 | 0.00 | 0.00 | ||
| 20260504185125 | 82 | 222 | 8.0 | 11.0 | 0.00 | 0.00 | 0.00 | ||
| 20260504184625 | 83 | 241 | 6.0 | 11.0 | 0.00 | 0.00 | 0.00 | ||
| 20260504184126 | 83 | 220 | 5.0 | 11.0 | 0.00 | 0.00 | 0.00 | ||
| 20260504183625 | 82 | 187 | 5.0 | 8.0 | 0.00 | 0.00 | 0.00 | ||
| 20260504183125 | 83 | 237 | 3.0 | 6.0 | 0.00 | 0.00 | 0.00 | ||
| 20260504182625 | 82 | 151 | 5.0 | 9.0 | 0.00 | 0.00 | 0.00 | ||
| 20260504182126 | 82 | 201 | 5.0 | 14.0 | 0.00 | 0.00 | 0.00 | ||
| 20260504181625 | 82 | 200 | 6.0 | 9.0 | 0.00 | 0.00 | 0.00 | ||
| 20260504181125 | 80 | 155 | 4.0 | 5.0 | 0.00 | 0.00 | 0.00 | ||
| 20260504180626 | 81 | 208 | 6.0 | 9.0 | 0.00 | 0.00 | 0.00 | ||
| 20260504180125 | 80 | 121 | 4.0 | 5.0 | 0.00 | 0.00 | 0.00 | ||
| 20260504175625 | 81 | 211 | 5.0 | 15.0 | 0.00 | 0.00 | 0.00 | ||
| 20260504175125 | 81 | 239 | 8.0 | 7.0 | 0.00 | 0.00 | 0.00 | ||
| 20260504174626 | 82 | 266 | 8.0 | 10.0 | 0.00 | 0.00 | 0.00 | ||
| 20260504174125 | 81 | 156 | 5.0 | 8.0 | 0.00 | 0.00 | 0.00 | ||
| 20260504173625 | 80 | 215 | 6.0 | 6.0 | 0.00 | 0.00 | 0.00 | ||
| 20260504172125 | 80 | 220 | 5.0 | 8.0 | 0.00 | 0.00 | 0.00 | ||
| 20260504171126 | 79 | 218 | 4.0 | 13.0 | 0.00 | 0.00 | 0.00 | ||
| 20260504170626 | 78 | 65 | 8.0 | 3.0 | 0.00 | 0.00 | 0.00 | ||
| 20260504170126 | 79 | 132 | 8.0 | 7.0 | 0.00 | 0.00 | 0.00 | ||
| 20260504160126 | 76 | 246 | 8.0 | 12.0 | 0.00 | 0.00 | 0.00 | ||
| 20260504151127 | 72 | 206 | 7.0 | 10.0 | 0.00 | 0.00 | 0.00 | ||
| 20260504150626 | 72 | 220 | 6.0 | 9.0 | 0.00 | 0.00 | 0.00 | ||
| 20260504150126 | 71 | 241 | 6.0 | 12.0 | 0.00 | 0.00 | 0.00 | ||
| 20260504141126 | 69 | 199 | 7.0 | 9.0 | 0.00 | 0.00 | 0.00 | ||
| 20260504140626 | 69 | 265 | 6.0 | 8.0 | 0.00 | 0.00 | 0.00 | ||
| 20260504140126 | 69 | 259 | 5.0 | 8.0 | 0.00 | 0.00 | 0.00 | ||
| 20260504130626 | 65 | 218 | 6.0 | 11.0 | 0.00 | 0.00 | 0.00 | ||
| 20260504130126 | 65 | 220 | 3.0 | 10.0 | 0.00 | 0.00 | 0.00 | ||
| 20260504120127 | 63 | 210 | 2.0 | 8.0 | 0.00 | 0.00 | 0.00 | ||
| 20260504110627 | 62 | 232 | 3.0 | 6.0 | 0.00 | 0.00 | 0.00 | ||
| 20260504100128 | 63 | 227 | 4.0 | 2.0 | 0.00 | 0.00 | 0.00 | ||
| 20260504090127 | 64 | 149 | 3.0 | 7.0 | 0.00 | 0.00 | 0.00 | ||
| 20260504081627 | 64 | 222 | 3.0 | 6.0 | 0.00 | 0.00 | 0.00 | ||
| 20260504081127 | 64 | 214 | 3.0 | 6.0 | 0.00 | 0.00 | 0.00 | ||
| 20260504080128 | 64 | 307 | 2.0 | 3.0 | 0.00 | 0.00 | 0.00 | ||
| 20260504070128 | 65 | 260 | 2.0 | 4.0 | 0.00 | 0.00 | 0.00 | ||
| 20260504060128 | 66 | 218 | 2.0 | 4.0 | 0.00 | 0.00 | 0.00 | ||
| 20260504050629 | 67 | 114 | 1.0 | 1.0 | 0.00 | 0.00 | 0.00 | ||
| 20260504050128 | 68 | 206 | 2.0 | 6.0 | 0.00 | 0.00 | 0.00 | ||
| 20260504045628 | 68 | 176 | 1.0 | 2.0 | 0.00 | 0.00 | 0.00 | ||
| 20260504045129 | 68 | 190 | 4.0 | 2.0 | 0.00 | 0.00 | 0.00 | ||
| 20260504044628 | 68 | 258 | 4.0 | 3.0 | 0.00 | 0.00 | 0.00 | ||
| 20260504044128 | 68 | 270 | 2.0 | 3.0 | 0.00 | 0.00 | 0.00 | ||
| 20260504043629 | 69 | 228 | 3.0 | 3.0 | 0.00 | 0.00 | 0.00 | ||
| 20260504043128 | 69 | 120 | 3.0 | 1.0 | 0.00 | 0.00 | 0.00 | ||
| 20260504042628 | 69 | 262 | 2.0 | 9.0 | 0.00 | 0.00 | 0.00 | ||
| 20260504042128 | 69 | 222 | 2.0 | 8.0 | 0.00 | 0.00 | 0.00 | ||
| 20260504041628 | 69 | 210 | 3.0 | 4.0 | 0.00 | 0.00 | 0.00 | ||
| 20260504041128 | 69 | 238 | 6.0 | 10.0 | 0.00 | 0.00 | 0.00 | ||
| 20260504040628 | 69 | 237 | 3.0 | 7.0 | 0.00 | 0.00 | 0.00 | ||
| 20260504040129 | 69 | 221 | 3.0 | 4.0 | 0.00 | 0.00 | 0.00 | ||
| 20260504035628 | 69 | 180 | 2.0 | 4.0 | 0.00 | 0.00 | 0.00 | ||
| 20260504035128 | 70 | 197 | 3.0 | 4.0 | 0.00 | 0.00 | 0.00 | ||
| 20260504034629 | 70 | 183 | 3.0 | 3.0 | 0.00 | 0.00 | 0.00 | ||
| 20260504034128 | 70 | 208 | 2.0 | 5.0 | 0.00 | 0.00 | 0.00 | ||
| 20260504033628 | 69 | 220 | 4.0 | 7.0 | 0.00 | 0.00 | 0.00 | ||
| 20260504033128 | 70 | 220 | 4.0 | 4.0 | 0.00 | 0.00 | 0.00 | ||
| 20260504032129 | 70 | 217 | 5.0 | 3.0 | 0.00 | 0.00 | 0.00 | ||
| 20260504031628 | 70 | 217 | 1.0 | 7.0 | 0.00 | 0.00 | 0.00 | ||
| 20260504031129 | 70 | 186 | 1.0 | 1.0 | 0.00 | 0.00 | 0.00 | ||
| 20260504030629 | 71 | 155 | 3.0 | 3.0 | 0.00 | 0.00 | 0.00 | ||
| 20260504030128 | 71 | 246 | 1.0 | 4.0 | 0.00 | 0.00 | 0.00 | ||
| 20260504025629 | 71 | 256 | 1.0 | 2.0 | 0.00 | 0.00 | 0.00 | ||
| 20260504025129 | 71 | 210 | 1.0 | 1.0 | 0.00 | 0.00 | 0.00 | ||
| 20260504024128 | 71 | 183 | 2.0 | 2.0 | 0.00 | 0.00 | 0.00 | ||
| 20260504023629 | 71 | 184 | 2.0 | 3.0 | 0.00 | 0.00 | 0.00 | ||
| 20260504023129 | 71 | 79 | 2.0 | 3.0 | 0.00 | 0.00 | 0.00 | ||
| 20260504022629 | 71 | 191 | 3.0 | 5.0 | 0.00 | 0.00 | 0.00 | ||
| 20260504022128 | 72 | 144 | 3.0 | 3.0 | 0.00 | 0.00 | 0.00 | ||
| 20260504021128 | 72 | 245 | 3.0 | 8.0 | 0.00 | 0.00 | 0.00 | ||
| 20260504020129 | 73 | 244 | 6.0 | 9.0 | 0.00 | 0.00 | 0.00 | ||
| 20260504015629 | 73 | 214 | 2.0 | 7.0 | 0.00 | 0.00 | 0.00 | ||
| 20260504014629 | 73 | 220 | 2.0 | 7.0 | 0.00 | 0.00 | 0.00 | ||
| 20260504014129 | 73 | 124 | 3.0 | 1.0 | 0.00 | 0.00 | 0.00 | ||
| 20260504013629 | 73 | 93 | 4.0 | 3.0 | 0.00 | 0.00 | 0.00 | ||
| 20260504012629 | 74 | 214 | 4.0 | 1.0 | 0.00 | 0.00 | 0.00 | ||
| 20260504012129 | 74 | 75 | 2.0 | 4.0 | 0.00 | 0.00 | 0.00 | ||
| 20260504011629 | 74 | 227 | 2.0 | 5.0 | 0.00 | 0.00 | 0.00 | ||
| 20260504010915 | 75 | 148 | 6.0 | 5.0 | 0.00 | 0.00 | 0.00 | ||
| 20260504010629 | 75 | 173 | 2.0 | 5.0 | 0.00 | 0.00 | 0.00 | ||
| 20260504010129 | 75 | 148 | 6.0 | 5.0 | 0.00 | 0.00 | 0.00 | ||
| 20260504005629 | 75 | 90 | 2.0 | 6.0 | 0.00 | 0.00 | 0.00 | ||
| 20260504005129 | 75 | 225 | 2.0 | 2.0 | 0.00 | 0.00 | 0.00 | ||
| 20260504004629 | 76 | 201 | 0.0 | 1.0 | 0.00 | 0.00 | 0.00 | ||
| 20260504004129 | 76 | 128 | 1.0 | 3.0 | 0.00 | 0.00 | 0.00 | ||
| 20260504003129 | 77 | 231 | 1.0 | 4.0 | 0.00 | 0.00 | 0.00 | ||
| 20260504002129 | 78 | 248 | 3.0 | 2.0 | 0.00 | 0.00 | 0.00 | ||
| 20260504001630 | 78 | 252 | 4.0 | 3.0 | 0.00 | 0.00 | 0.00 | ||
| 20260504001129 | 78 | 228 | 5.0 | 6.0 | 0.00 | 0.00 | 0.00 | ||
| 20260504000630 | 79 | 153 | 3.0 | 7.0 | 0.00 | 0.00 | 0.00 | ||
| 20260503235630 | 79 | 208 | 1.0 | 6.0 | 0.00 | 0.00 | 0.00 | ||
| 20260503235130 | 79 | 28 | 6.0 | 5.0 | 0.00 | 0.00 | 0.00 |